Location: Ergnies
(50.0854°N, 2.0375°E)
Time: 09:13:52
(UTC+00:00)

CBERS-1 - Pass Details

Date: 14 January 2026
Orbit: 765 x 772 km, 98.9° (Epoch: 18 February)

Event Time Altitude Azimuth Distance (km) Brightness Sun altitude
Rises 05:50:34 0° 17° (NNE) 3,246 7.3 -17.8°
Reaches altitude 10° 05:52:55 10° 21° (NNE) 2,315 6.6 -17.4°
Maximum altitude 05:57:59 63° 103° (ESE) 854 4.5 -16.6°
Drops below altitude 10° 06:03:00 10° 184° (S) 2,300 6.6 -15.8°
Sets 06:05:19 0° 188° (S) 3,222 7.3 -15.5°
